Location: San Martino di Castrozza
(46.2667°N, 11.8000°E)
Time: 15:39:53
(UTC+00:00)

Cosmos 2366 rocket - Pass Details

Date: 23 April 2021
Orbit: 954 x 998 km, 82.9° (Epoch: 12 May)

Event Time Altitude Azimuth Distance (km) Brightness Sun altitude
Rises 00:12:02 0° 352° (N) 3,646 7.9 -29.6°
Reaches altitude 10° 00:14:33 10° 354° (N) 2,694 7.1 -29.5°
Maximum altitude 00:20:44 78° 81° (E) 980 3.9 -29.1°
Enters shadow 00:21:03 75° 117° (ESE) 989 3.9 -29.1°
